[[{"header":{"parameterUnit":"m.s-1","parameterCategory":1,"la1":30.2991,"la2":30.254,"lo1":-89.0895,"lo2":-89.0444,"dy":0.0017,"dx":0.0017,"nx":28,"ny":28,"refTime":"2025-12-18T03:00:00:Z","depth":0,"parameterNumber":2,"parameterNumberName":"U-component_of_WINDS"},"data":[0,0,0,0,0,0,0,0,0,0,0,0,0,0,0,0,0,0,0,0,0,0,0,0,0,0,0,0,0,0,0,0,0,0,0,0,0,0,0,0,0,0,0,0,0,0,0,0,0,0,0,0,0,0,0,0,0,0,-5.2421,-5.2421,0,-5.2496,-5.2497,-5.2498,-5.2448,-5.2446,-5.2443,-5.2441,-5.2514,-5.2518,-5.2522,0,0,0,0,0,0,0,0,0,0,0,0,0,-5.223,-5.2233,-5.242,-5.2421,-5.2422,-5.2496,-5.2497,-5.2498,-5.2448,-5.2446,-5.2443,-5.244,-5.2512,-5.2517,-5.2522,0,0,0,0,0,0,0,0,0,0,0,0,0,-5.231,-5.2235,-5.242,-5.2407,-5.2406,-5.2496,-5.2497,-5.2498,-5.2449,-5.2446,-5.2442,-5.2439,-5.2511,-5.2517,-5.2523,-5.2628,0,0,-5.2541,-5.2544,0,0,0,0,0,0,0,0,-5.2305,-5.2317,-5.2408,-5.2408,-5.2407,-5.2459,-5.2456,-5.2542,-5.245,-5.2433,-5.2441,-5.2437,-5.2498,-5.2505,-5.2526,-5.2632,-5.2635,-5.2542,-5.2545,-5.2548,-5.255,0,0,0,0,0,0,0,-5.23,-5.2313,-5.245,-5.2409,-5.2409,-5.2396,-5.2403,-5.2472,-5.2483,-5.2434,-5.243,-5.244,-5.2497,-5.2521,-5.2528,-5.2636,-5.2542,-5.2547,-5.2551,-5.2553,-5.2833,-5.2837,0,0,0,0,0,0,-5.2296,-5.2309,-5.2448,-5.2452,-5.2347,-5.2402,-5.241,-5.2446,-5.2483,-5.2485,-5.2443,-5.2438,-5.2512,-5.2521,-5.253,-5.2656,-5.2548,-5.2554,-5.2557,-5.283,-5.2834,-5.2838,0,0,0,0,0,0,-5.2292,-5.2309,-5.2445,-5.238,-5.2396,-5.2409,-5.2449,-5.2449,-5.2473,-5.249,-5.2491,-5.2465,-5.251,-5.2522,-5.2605,-5.2658,-5.2556,-5.2562,-5.2825,-5.2831,-5.2836,-5.291,0,0,0,0,0,0,-5.2287,-5.2308,-5.2348,-5.2381,-5.24,-5.2519,-5.2453,-5.2453,-5.2484,-5.2477,-5.2511,-5.2513,-5.2508,-5.2596,-5.2611,-5.2665,-5.2567,-5.282,-5.2828,-5.2834,-5.2902,-5.2917,-5.293,0,0,0,0,0,-5.228,-5.2364,-5.2351,-5.2368,-5.2451,-5.2522,-5.2533,-5.2527,-5.2488,-5.2529,-5.254,-5.2512,-5.2651,-5.2605,-5.2621,-5.2678,-5.2817,-5.2826,-5.2834,-5.2896,-5.2914,-5.2929,0,0,0,0,0,0,-5.2334,-5.2368,-5.2353,-5.2451,-5.2485,-5.2514,-5.2564,-5.2546,-5.2589,-5.2581,-5.2571,-5.2579,-5.2666,-5.2681,-5.2629,-5.2783,-5.2728,-5.274,-5.2769,-5.2787,-5.28,-5.2793,-5.2572,0,0,0,0,0,-5.2359,-5.2415,-5.2441,-5.2525,-5.2543,-5.2552,-5.2582,-5.2575,-5.2608,-5.2622,-5.2639,-5.2671,-5.2722,-5.2756,-5.2803,-5.2906,-5.2912,-5.2953,-5.2966,-5.2977,-5.2987,-5.3042,-5.306,-5.2866,-5.2866,-5.2866,0,0,-5.2407,-5.2433,-5.2469,-5.2537,-5.2562,-5.2619,-5.2563,-5.2626,-5.2668,-5.263,-5.271,-5.2725,-5.276,-5.2854,-5.2896,-5.2869,-5.3043,-5.2988,-5.2997,-5.3,-5.3053,-5.3071,-5.3087,-5.2872,-5.2871,-5.287,0,0,-5.2525,-5.2551,-5.2624,-5.2652,-5.2691,-5.2697,-5.2715,-5.2748,-5.2757,-5.2838,-5.2811,-5.2861,-5.2949,-5.2976,-5.3001,-5.3134,-5.3109,-5.315,-5.322,-5.3274,-5.3289,-5.3303,-5.3349,-5.3366,-5.316,-5.3161,-5.3161,0,-5.258,-5.2667,-5.2663,-5.2729,-5.276,-5.2732,-5.2805,-5.2832,-5.2884,-5.2906,-5.2875,-5.2987,-5.3009,-5.3108,-5.3141,-5.3163,-5.3182,-5.3144,-5.3288,-5.3301,-5.3313,-5.3357,-5.3375,-5.3165,-5.3165,-5.3164,-5.3164,0,-5.2732,-5.2793,-5.2847,-5.2901,-5.2939,-5.3008,-5.3014,-5.3052,-5.3043,-5.3052,-5.3136,-5.3162,-5.3215,-5.3239,-5.323,-5.3338,-5.3319,-5.3289,-5.3233,-5.3337,-5.3378,-5.3394,-5.3172,-5.317,-5.3169,-5.3168,0,0,-5.2881,-5.2937,-5.2956,-5.2981,-5.3025,-5.3071,-5.314,-5.3195,-5.3227,-5.3266,-5.3322,-5.3399,-5.3372,-5.3401,-5.3395,-5.3443,-5.3546,-5.3407,-5.3407,-5.343,-5.3666,-5.3687,-5.3706,-5.3532,-5.3535,-5.3538,-5.3662,0,-5.3,-5.3121,-5.3122,-5.3233,-5.3289,-5.3266,-5.3326,-5.3359,-5.337,-5.3419,-5.3431,-5.3486,-5.3446,-5.3464,-5.3511,-5.3524,-5.3593,-5.3515,-5.3582,-5.3585,-5.3571,-5.3728,-5.3749,-5.3865,-5.3679,-5.3681,-5.3683,0,-5.3154,-5.3201,-5.3318,-5.3356,-5.3379,-5.3433,-5.3484,-5.3532,-5.3569,-5.3574,-5.3609,-5.3597,-5.3666,-5.3611,-5.3706,-5.3653,-5.3682,-5.3693,-5.3697,-5.37,-5.3638,-5.3733,-5.3902,-5.3919,-5.3709,-5.3707,-5.3705,0,-5.3249,-5.3341,-5.3424,-5.3446,-5.3493,-5.3531,-5.3552,-5.3587,-5.362,-5.3665,-5.3686,-5.3738,-5.3765,-5.3806,-5.3808,-5.3768,-5.3904,-5.3849,-5.3908,-5.3908,-5.3934,-5.3932,-5.4108,-5.3958,-5.3957,-5.3957,-5.3957,0,-5.338,-5.3452,-5.3467,-5.3517,-5.3598,-5.3599,-5.3678,-5.3696,-5.3728,-5.378,-5.3764,-5.3813,-5.3815,-5.3866,-5.3868,-5.3946,-5.3959,-5.3964,-5.3963,-5.3964,-5.3963,-5.3979,-5.397,-5.3962,-5.3961,-5.396,-5.3959,0,-5.3497,-5.3511,-5.3599,-5.3638,-5.365,-5.3707,-5.3739,-5.3787,-5.3799,-5.3866,-5.3882,-5.39,-5.3959,-5.3967,-5.4035,-5.4037,-5.413,-5.4122,-5.4118,-5.4115,-5.4173,-5.4167,-5.4363,-5.4389,-5.4225,-5.4226,-5.4228,0,-5.3578,-5.3634,-5.368,-5.3715,-5.3739,-5.3796,-5.3831,-5.3835,-5.3872,-5.3922,-5.3963,-5.4022,-5.4068,-5.4164,-5.4182,-5.4235,-5.4226,-5.4292,-5.4233,-5.4233,-5.4224,-5.422,-5.4225,-5.4301,-5.4303,-5.4305,-5.4306,0,-5.372,-5.3725,-5.3776,-5.3832,-5.3875,-5.3918,-5.3959,-5.3989,-5.3998,-5.4041,-5.4102,-5.4139,-5.4211,-5.4268,-5.4322,-5.4342,-5.4325,-5.4325,-5.4341,-5.434,-5.4334,-5.4336,-5.4145,-5.4319,-5.4318,-5.4317,-5.4316,-5.4316,-5.3819,-5.3868,-5.3909,-5.3968,-5.4,-5.404,-5.4087,-5.4106,-5.4159,-5.4218,-5.4218,-5.4286,-5.4324,-5.4394,-5.4419,-5.4472,-5.445,-5.4473,-5.4479,-5.4484,-5.4489,-5.433,-5.4482,-5.4481,-5.4481,-5.4481,-5.448,0,-5.3958,-5.3985,-5.4039,-5.4098,-5.4145,-5.413,-5.4175,-5.4214,-5.4275,-5.4313,-5.4361,-5.4432,-5.4489,-5.4514,-5.457,-5.4607,-5.4601,-5.4621,-5.4617,-5.4622,-5.4506,-5.4485,-5.4625,-5.4625,-5.4625,-5.4625,-5.4625,-5.4625,-5.4035,-5.4117,-5.4127,-5.4225,-5.425,-5.4318,-5.4345,-5.4381,-5.4412,-5.4494,-5.4542,-5.4559,-5.4592,-5.4651,-5.4703,-5.4709,-5.4728,-5.4752,-5.4754,-5.4644,-5.463,-5.4615,-5.4596,-5.4757,-5.4757,-5.4865,-5.4866,-5.4867]},{"header":{"parameterUnit":"m.s-1","parameterCategory":1,"la1":30.2991,"la2":30.254,"lo1":-89.0895,"lo2":-89.0444,"dy":0.0017,"dx":0.0017,"nx":28,"ny":28,"refTime":"2025-12-18T03:00:00:Z","depth":0,"parameterNumber":3,"parameterNumberName":"V-component_of_WINDS"},"data":[0,0,0,0,0,0,0,0,0,0,0,0,0,0,0,0,0,0,0,0,0,0,0,0,0,0,0,0,0,0,0,0,0,0,0,0,0,0,0,0,0,0,0,0,0,0,0,0,0,0,0,0,0,0,0,0,0,0,2.1232,2.1233,0,2.1294,2.1295,2.1296,2.129,2.1289,2.1288,2.1288,2.1353,2.1356,2.1358,0,0,0,0,0,0,0,0,0,0,0,0,0,2.1112,2.1114,2.1232,2.1233,2.1234,2.1294,2.1295,2.1296,2.129,2.1289,2.1288,2.1287,2.1352,2.1355,2.1359,0,0,0,0,0,0,0,0,0,0,0,0,0,2.1168,2.1115,2.1232,2.1238,2.1239,2.1294,2.1295,2.1296,2.1291,2.1289,2.1288,2.1287,2.1351,2.1355,2.1359,2.1412,0,0,2.1371,2.1373,0,0,0,0,0,0,0,0,2.1165,2.1173,2.1237,2.1238,2.1239,2.1283,2.1277,2.1335,2.1291,2.1271,2.1288,2.1286,2.1331,2.1337,2.1351,2.1415,2.1418,2.1371,2.1374,2.1376,2.1377,0,0,0,0,0,0,0,2.1161,2.117,2.1257,2.1238,2.1239,2.1239,2.1245,2.1288,2.1309,2.1273,2.1273,2.128,2.1332,2.1348,2.1353,2.1419,2.1371,2.1375,2.1377,2.1379,2.1532,2.1533,0,0,0,0,0,0,2.1155,2.1167,2.1255,2.1259,2.1198,2.1242,2.1249,2.127,2.1308,2.1312,2.1281,2.128,2.1342,2.1348,2.1355,2.1422,2.1375,2.1379,2.1381,2.153,2.1532,2.1534,0,0,0,0,0,0,2.1153,2.1163,2.1252,2.1213,2.1224,2.1246,2.127,2.1272,2.1289,2.1314,2.1318,2.1294,2.1341,2.135,2.1398,2.1424,2.1381,2.1385,2.1528,2.1531,2.1533,2.1555,0,0,0,0,0,0,2.1149,2.1162,2.1182,2.1213,2.1226,2.1294,2.1271,2.1275,2.1295,2.1294,2.1327,2.1331,2.134,2.1393,2.1402,2.1429,2.1388,2.1526,2.1529,2.1532,2.1552,2.1558,2.1563,0,0,0,0,0,2.1145,2.1185,2.1183,2.1194,2.1251,2.1295,2.1303,2.1312,2.1297,2.1318,2.1335,2.133,2.1419,2.1398,2.1409,2.1437,2.1524,2.1528,2.1532,2.155,2.1557,2.1563,0,0,0,0,0,0,2.1157,2.119,2.1187,2.1239,2.1264,2.1294,2.132,2.1319,2.1349,2.1347,2.1357,2.1365,2.1415,2.143,2.1405,2.1491,2.147,2.1476,2.148,2.1487,2.1492,2.1489,2.1391,0,0,0,0,0,2.1166,2.1198,2.1225,2.1268,2.1281,2.1298,2.1318,2.1323,2.135,2.1361,2.1381,2.1408,2.1443,2.1465,2.1498,2.1553,2.1562,2.1578,2.1584,2.1588,2.1594,2.1628,2.1636,2.1547,2.1547,2.1546,0,0,2.1184,2.1206,2.1226,2.1271,2.1291,2.1326,2.1307,2.1344,2.1371,2.1366,2.1414,2.143,2.1461,2.1514,2.1539,2.1529,2.1621,2.1593,2.1596,2.16,2.1633,2.1641,2.1649,2.1549,2.1549,2.1548,0,0,2.1236,2.1254,2.1294,2.1314,2.1345,2.1357,2.1366,2.1396,2.1407,2.1455,2.1453,2.1485,2.1543,2.1566,2.1586,2.1647,2.1645,2.1657,2.1687,2.1719,2.1727,2.1733,2.1758,2.1766,2.1663,2.1663,2.1663,0,2.1255,2.1307,2.1314,2.1352,2.1373,2.137,2.1411,2.1431,2.1471,2.1486,2.1474,2.1549,2.1569,2.1629,2.1644,2.1659,2.1672,2.1655,2.1725,2.1731,2.1737,2.1761,2.177,2.1664,2.1664,2.1664,2.1664,0,2.133,2.1366,2.1394,2.1433,2.1457,2.1496,2.1511,2.1534,2.1537,2.155,2.16,2.1625,2.1664,2.1677,2.168,2.1739,2.1732,2.1722,2.1702,2.1747,2.177,2.1779,2.1666,2.1666,2.1665,2.1665,0,0,2.1393,2.1436,2.1447,2.1465,2.1499,2.1528,2.1567,2.1605,2.1626,2.1654,2.1689,2.1739,2.173,2.1752,2.1758,2.1786,2.1837,2.1773,2.1774,2.1787,2.1906,2.1916,2.1926,2.1835,2.1836,2.1838,2.1905,0,2.1451,2.1521,2.1529,2.1592,2.1626,2.1624,2.1659,2.1684,2.1698,2.173,2.1745,2.1781,2.1766,2.178,2.1807,2.1825,2.1862,2.182,2.187,2.1872,2.1866,2.1938,2.1948,2.201,2.1913,2.1915,2.1916,0,2.1528,2.1558,2.1625,2.1656,2.1671,2.1702,2.1738,2.1768,2.1798,2.1805,2.183,2.1833,2.1875,2.1851,2.1911,2.1883,2.1904,2.1915,2.1918,2.1926,2.1899,2.195,2.2029,2.204,2.1929,2.1928,2.1927,0,2.1571,2.1628,2.1676,2.1692,2.1728,2.1751,2.1767,2.1795,2.1818,2.185,2.1865,2.1901,2.1922,2.195,2.1963,2.1943,2.2024,2.2,2.2034,2.2034,2.2053,2.2053,2.214,2.2061,2.2061,2.2061,2.2061,0,2.1637,2.1679,2.1697,2.1726,2.1773,2.1782,2.1829,2.1844,2.1869,2.1903,2.1902,2.1935,2.1948,2.1982,2.1992,2.2043,2.2051,2.206,2.2063,2.2062,2.2062,2.2079,2.2076,2.2064,2.2063,2.2062,2.2062,0,2.1695,2.1708,2.176,2.1791,2.1799,2.1833,2.186,2.1889,2.1902,2.1945,2.1956,2.1976,2.2017,2.2032,2.2081,2.2088,2.2147,2.2145,2.2138,2.2139,2.2174,2.2172,2.2278,2.2294,2.2201,2.2202,2.2203,0,2.1737,2.1769,2.1803,2.1826,2.1843,2.1879,2.1902,2.1912,2.1937,2.1973,2.1999,2.2039,2.2073,2.2138,2.2159,2.2197,2.2197,2.2232,2.2203,2.2203,2.2202,2.2202,2.2206,2.2238,2.2239,2.224,2.2241,0,2.1813,2.1818,2.1851,2.1888,2.1916,2.1945,2.1973,2.1991,2.2006,2.2034,2.2075,2.2101,2.2152,2.2193,2.2232,2.225,2.225,2.2249,2.226,2.2261,2.2257,2.2263,2.2156,2.2247,2.2247,2.2246,2.2246,2.2246,2.1867,2.1896,2.1925,2.1963,2.1985,2.2012,2.2042,2.2058,2.2093,2.2135,2.2138,2.2184,2.2214,2.2267,2.2287,2.2324,2.2315,2.2329,2.2333,2.2338,2.2342,2.2248,2.233,2.233,2.233,2.233,2.233,0,2.1946,2.1964,2.1998,2.2038,2.2068,2.2062,2.2093,2.212,2.216,2.2187,2.222,2.2269,2.2309,2.2332,2.2373,2.2398,2.2399,2.2409,2.2409,2.2414,2.2346,2.2335,2.2408,2.2408,2.2408,2.2408,2.2408,2.2408,2.1991,2.2041,2.205,2.2111,2.2129,2.2174,2.2193,2.2218,2.224,2.2295,2.2328,2.2342,2.2369,2.2412,2.2449,2.2455,2.2472,2.2483,2.2489,2.2426,2.2418,2.2411,2.24,2.2486,2.2486,2.2554,2.2554,2.2555]}]]